[[{"header":{"parameterUnit":"m.s-1","parameterCategory":1,"la1":30.2992,"la2":30.254,"lo1":-89.0895,"lo2":-89.0443,"dy":0.0025,"dx":0.0025,"nx":19,"ny":19,"refTime":"2026-04-30T21:00:00:Z","depth":0,"parameterNumber":2,"parameterNumberName":"U-component_of_WINDS"},"data":[0,0,0,-2.7808,-2.7811,-2.7968,-2.7968,-2.8173,-2.8175,0,0,0,0,0,0,0,0,0,0,0,-2.7765,-2.7766,-2.7808,-2.7812,-2.7967,-2.7968,-2.8172,-2.8175,0,0,0,0,0,0,0,0,0,0,0,-2.7764,-2.7766,-2.7768,-2.7812,-2.7967,-2.7968,-2.8172,-2.8052,0,0,0,0,0,0,0,0,0,0,-2.79,-2.7863,-2.7765,-2.7768,-2.7813,-2.7967,-2.7968,-2.8047,-2.806,-2.8104,0,-2.8144,0,-2.8162,-2.8189,-2.8189,0,0,0,-2.781,-2.7852,-2.7891,-2.7768,-2.7815,-2.7967,-2.7897,-2.8054,-2.8069,-2.8122,-2.8147,-2.8154,-2.8166,-2.819,-2.8191,-2.8452,-2.8453,0,0,-2.7801,-2.7794,-2.7881,-2.7901,-2.7877,-2.7892,-2.7902,-2.8063,-2.809,-2.8147,-2.8159,-2.8169,-2.8191,-2.8193,-2.845,-2.8452,0,0,0,-2.7778,-2.7789,-2.7824,-2.7893,-2.792,-2.7896,-2.7908,-2.8083,-2.8095,-2.8161,-2.8172,-2.8192,-2.8195,-2.8449,-2.8451,-2.8511,0,0,0,-2.7772,-2.7775,-2.782,-2.7818,-2.7918,-2.8004,-2.7924,-2.8084,-2.8102,-2.8171,-2.8193,-2.8197,-2.8448,-2.845,-2.8506,-2.8541,0,0,0,-2.7754,-2.7773,-2.7796,-2.7817,-2.7884,-2.8001,-2.8022,-2.8088,-2.8109,-2.8189,-2.8198,-2.8447,-2.845,-2.8502,-2.8534,-2.8609,0,0,0,-2.7732,-2.7846,-2.7797,-2.7929,-2.7882,-2.8036,-2.8021,-2.8136,-2.8212,-2.8194,-2.8448,-2.8451,-2.85,-2.853,-2.8604,-2.8672,-2.87,0,0,-2.7873,-2.7863,-2.7942,-2.7902,-2.8063,-2.8013,-2.8183,-2.8259,-2.8272,-2.8391,-2.8398,-2.8508,-2.8533,-2.8608,-2.885,-2.8871,0,0,0,-2.7984,-2.8041,-2.8085,-2.8157,-2.8217,-2.8272,-2.8322,-2.8351,-2.8452,-2.8332,-2.8554,-2.8569,-2.8613,-2.8647,-2.8665,-2.8704,-2.8465,-2.8465,-2.8464,-2.8176,-2.8187,-2.8318,-2.8348,-2.8417,-2.8468,-2.8526,-2.8572,-2.8563,-2.8615,-2.8651,-2.8797,-2.8835,-2.8849,-2.8889,-2.8686,-2.8686,-2.8686,-2.8687,-2.8386,-2.8469,-2.8452,-2.8574,-2.8584,-2.8686,-2.8739,-2.8729,-2.8826,-2.877,-2.8809,-2.875,-2.8872,-2.8908,-2.8691,-2.869,-2.869,-2.8689,-2.8689,-2.8516,-2.8557,-2.8589,-2.8694,-2.8774,-2.8799,-2.8893,-2.8898,-2.8904,-2.8943,-2.8983,-2.8982,-2.8984,-2.8961,-2.8962,-2.8962,-2.8963,-2.8963,-2.8963,-2.8639,-2.8672,-2.8751,-2.8824,-2.8871,-2.8933,-2.8984,-2.9031,-2.9084,-2.9081,-2.9081,-2.9068,-2.8881,-2.8835,-2.8971,-2.897,-2.8969,-2.8968,-2.8968,-2.8853,-2.8805,-2.8926,-2.8973,-2.906,-2.9139,-2.9144,-2.9238,-2.9277,-2.9323,-2.93,-2.9161,-2.9152,-2.9137,-2.91,-2.9296,-2.9296,-2.9296,-2.9296,-2.8964,-2.8959,-2.9084,-2.9159,-2.9233,-2.925,-2.9387,-2.9427,-2.9461,-2.9486,-2.9458,-2.9408,-2.9392,-2.9393,-2.9373,-2.9338,-2.9591,-2.9591,-2.9591,-2.9097,-2.9099,-2.9216,-2.9248,-2.9315,-2.9373,-2.9503,-2.959,-2.9618,-2.9603,-2.9507,-2.9494,-2.9413,-2.9386,-2.9372,-2.934,-2.9277,0,0]},{"header":{"parameterUnit":"m.s-1","parameterCategory":1,"la1":30.2992,"la2":30.254,"lo1":-89.0895,"lo2":-89.0443,"dy":0.0025,"dx":0.0025,"nx":19,"ny":19,"refTime":"2026-04-30T21:00:00:Z","depth":0,"parameterNumber":3,"parameterNumberName":"V-component_of_WINDS"},"data":[0,0,0,-8.8427,-8.8432,-8.8643,-8.8644,-8.8926,-8.8928,0,0,0,0,0,0,0,0,0,0,0,-8.8374,-8.8376,-8.8427,-8.8432,-8.8643,-8.8644,-8.8925,-8.8928,0,0,0,0,0,0,0,0,0,0,0,-8.8373,-8.8375,-8.8378,-8.8433,-8.8643,-8.8644,-8.8924,-8.876,0,0,0,0,0,0,0,0,0,0,-8.8553,-8.8514,-8.8375,-8.8378,-8.8434,-8.8643,-8.8644,-8.8752,-8.8771,-8.8836,0,-8.8898,0,-8.8918,-8.8948,-8.8949,0,0,0,-8.8424,-8.8498,-8.8547,-8.8379,-8.8436,-8.8642,-8.8546,-8.8762,-8.8783,-8.886,-8.8902,-8.8912,-8.8923,-8.895,-8.8951,-8.9362,-8.9365,0,0,-8.8413,-8.8416,-8.8533,-8.8561,-8.8532,-8.8539,-8.8552,-8.8775,-8.882,-8.8903,-8.8919,-8.8928,-8.8952,-8.8954,-8.936,-8.9363,0,0,0,-8.8384,-8.8408,-8.8451,-8.855,-8.8588,-8.8545,-8.8561,-8.881,-8.8824,-8.8922,-8.8931,-8.8954,-8.8957,-8.9358,-8.9361,-8.9482,0,0,0,-8.8377,-8.8392,-8.8447,-8.8451,-8.8584,-8.8702,-8.8591,-8.8808,-8.8833,-8.8929,-8.8954,-8.896,-8.9355,-8.936,-8.9473,-8.9538,0,0,0,-8.8357,-8.8389,-8.8423,-8.845,-8.8542,-8.8698,-8.8725,-8.8813,-8.884,-8.8949,-8.8961,-8.9353,-8.9359,-8.9465,-8.9525,-8.9651,0,0,0,-8.8335,-8.8523,-8.8425,-8.8639,-8.854,-8.8771,-8.8723,-8.8894,-8.9002,-8.8955,-8.9356,-8.9361,-8.9463,-8.9518,-8.9643,-8.976,-8.9808,0,0,-8.8575,-8.8552,-8.8678,-8.8597,-8.8847,-8.8739,-8.9006,-8.9099,-8.9104,-8.9275,-8.9285,-8.9476,-8.9525,-8.9649,-9.0073,-9.0111,0,0,0,-8.8755,-8.8846,-8.8912,-8.9018,-8.9096,-8.917,-8.9223,-8.9258,-8.9404,-8.9194,-8.9553,-8.9582,-8.9655,-8.9711,-8.9744,-8.9808,-8.9386,-8.9385,-8.9385,-8.9099,-8.91,-8.9309,-8.9336,-8.9439,-8.9494,-8.9577,-8.9634,-8.9599,-8.9685,-8.9736,-8.9994,-9.0059,-9.0084,-9.015,-8.9795,-8.9796,-8.9796,-8.9796,-8.9453,-8.9584,-8.9539,-8.9726,-8.9725,-8.9881,-8.9941,-8.9913,-9.0058,-8.9953,-9.0017,-8.9907,-9.0126,-9.0184,-8.9805,-8.9804,-8.9803,-8.9802,-8.9801,-8.9682,-8.9745,-8.9787,-8.9943,-9.0062,-9.008,-9.0224,-9.0215,-9.0207,-9.0271,-9.0327,-9.0325,-9.0325,-9.0298,-9.0299,-9.03,-9.03,-9.0301,-9.0302,-8.9903,-8.9947,-9.0071,-9.0173,-9.0242,-9.0331,-9.039,-9.0457,-9.0528,-9.0511,-9.0511,-9.0471,-9.0147,-9.0068,-9.0316,-9.0313,-9.0311,-9.031,-9.0309,-9.0267,-9.0185,-9.0376,-9.0446,-9.0567,-9.0688,-9.0676,-9.0813,-9.0867,-9.0938,-9.0885,-9.0645,-9.0621,-9.0595,-9.053,-9.0882,-9.0882,-9.0882,-9.0882,-9.0462,-9.045,-9.0646,-9.0759,-9.0867,-9.0877,-9.1094,-9.1142,-9.1177,-9.1211,-9.1157,-9.1069,-9.1042,-9.1034,-9.0998,-9.0937,-9.1386,-9.1386,-9.1387,-9.0688,-9.0687,-9.0874,-9.0911,-9.1006,-9.1088,-9.1292,-9.1422,-9.1444,-9.1407,-9.1237,-9.1216,-9.1073,-9.1026,-9.0986,-9.0931,-9.0819,0,0]}]]